{"data":{"norad_id":58985,"epoch":"2026-05-24T21:51:02.147328Z","epoch_age_seconds":81992,"freshness":"FRESH","line1":"1 58985U 24031W   26144.91044152  .00000487  00000+0  25534-4 0  9999","line2":"2 58985  53.1616 299.7252 0000649 126.7210 233.3853 15.34396886128228","mean_motion":15.34396886,"eccentricity":6.49e-5,"inclination_deg":53.1616,"raan_deg":299.7252,"arg_perigee_deg":126.721,"mean_anomaly_deg":233.3853,"bstar":2.5534e-5,"rev_number":12822,"period_min":93.847948541783,"perigee_km":462.26852455473,"apogee_km":463.15646681927,"semimajor_km":6840.849495687,"source":"CELESTRAK","updated_at":"2026-05-25T13:38:18.797130Z"}}